Time,TemperatureF,DewpointF,PressureIn,WindDirection,WindDirectionDegrees,WindSpeedMPH,WindSpeedGustMPH,Humidity,HourlyPrecipIn,Conditions,Clouds,dailyrainin,SoftwareType,DateUTC
2013-09-04 00:01:00,70.1,62.9,29.77,WNW,303,0.0,1.0,78,0.00,,,0.00,Wunderground v.1.15,2013-09-04 07:01:00,
2013-09-04 00:07:00,69.9,62.7,29.77,WNW,303,0.0,1.0,78,0.00,,,0.00,Wunderground v.1.15,2013-09-04 07:07:00,
2013-09-04 00:12:00,69.7,62.5,29.77,NW,304,0.0,1.0,78,0.00,,,0.00,Wunderground v.1.15,2013-09-04 07:12:00,
2013-09-04 00:18:00,69.6,62.8,29.77,NW,304,0.0,1.0,79,0.00,,,0.00,Wunderground v.1.15,2013-09-04 07:18:00,
2013-09-04 00:23:00,69.4,62.6,29.77,WNW,303,0.0,1.0,79,0.00,,,0.00,Wunderground v.1.15,2013-09-04 07:23:00,
2013-09-04 00:28:00,69.2,62.4,29.77,NW,304,0.0,1.0,79,0.00,,,0.00,Wunderground v.1.15,2013-09-04 07:28:00,
2013-09-04 00:33:00,69.0,62.6,29.77,NW,304,0.0,1.0,80,0.00,,,0.00,Wunderground v.1.15,2013-09-04 07:33:00,
2013-09-04 00:38:00,68.8,62.4,29.77,WNW,303,0.0,1.0,80,0.00,,,0.00,Wunderground v.1.15,2013-09-04 07:38:00,
2013-09-04 00:43:00,68.6,62.5,29.77,NW,304,0.0,1.0,81,0.00,,,0.00,Wunderground v.1.15,2013-09-04 07:43:00,
2013-09-04 00:48:00,68.5,62.4,29.77,NW,304,0.0,1.0,81,0.00,,,0.00,Wunderground v.1.15,2013-09-04 07:48:00,
2013-09-04 00:53:00,68.3,62.6,29.77,WNW,303,0.0,1.0,82,0.00,,,0.00,Wunderground v.1.15,2013-09-04 07:53:00,
2013-09-04 00:58:00,68.2,62.5,29.77,NW,304,0.0,1.0,82,0.00,,,0.00,Wunderground v.1.15,2013-09-04 07:58:00,
2013-09-04 01:03:00,68.0,62.6,29.77,WNW,303,0.0,1.0,83,0.00,,,0.00,Wunderground v.1.15,2013-09-04 08:03:00,
2013-09-04 01:09:00,67.9,62.5,29.77,WNW,303,0.0,1.0,83,0.00,,,0.00,Wunderground v.1.15,2013-09-04 08:09:00,
2013-09-04 01:15:00,67.7,62.3,29.77,WNW,303,0.0,1.0,83,0.00,,,0.00,Wunderground v.1.15,2013-09-04 08:15:00,
2013-09-04 01:20:00,67.6,62.3,29.77,NW,304,0.0,1.0,83,0.00,,,0.00,Wunderground v.1.15,2013-09-04 08:20:00,
2013-09-04 01:25:00,67.4,62.1,29.77,NW,304,0.0,1.0,83,0.00,,,0.00,Wunderground v.1.15,2013-09-04 08:25:00,
2013-09-04 01:30:00,67.2,61.9,29.77,NW,304,0.0,1.0,83,0.00,,,0.00,Wunderground v.1.15,2013-09-04 08:30:00,
2013-09-04 01:35:00,67.1,62.1,29.77,NW,304,0.0,1.0,84,0.00,,,0.00,Wunderground v.1.15,2013-09-04 08:35:00,
2013-09-04 01:40:00,66.9,61.9,29.77,WNW,303,0.0,1.0,84,0.00,,,0.00,Wunderground v.1.15,2013-09-04 08:40:00,
2013-09-04 01:45:00,66.8,61.8,29.77,NW,304,0.0,1.0,84,0.00,,,0.00,Wunderground v.1.15,2013-09-04 08:45:00,
2013-09-04 01:50:00,66.7,62.0,29.77,NW,304,0.0,1.0,85,0.00,,,0.00,Wunderground v.1.15,2013-09-04 08:50:00,
2013-09-04 01:55:00,66.5,61.8,29.77,WNW,303,0.0,1.0,85,0.00,,,0.00,Wunderground v.1.15,2013-09-04 08:55:00,
2013-09-04 02:00:00,66.4,62.1,29.78,NW,304,0.0,1.0,86,0.00,,,0.00,Wunderground v.1.15,2013-09-04 09:00:00,
2013-09-04 02:05:00,66.2,61.6,29.78,NW,304,0.0,1.0,85,0.00,,,0.00,Wunderground v.1.15,2013-09-04 09:05:00,
2013-09-04 02:10:00,66.1,61.5,29.78,WNW,303,0.0,1.0,85,0.00,,,0.00,Wunderground v.1.15,2013-09-04 09:10:00,
2013-09-04 02:15:00,65.9,61.3,29.78,NW,304,0.0,1.0,85,0.00,,,0.00,Wunderground v.1.15,2013-09-04 09:15:00,
2013-09-04 02:21:00,65.8,61.5,29.78,NW,304,0.0,1.0,86,0.00,,,0.00,Wunderground v.1.15,2013-09-04 09:21:00,
2013-09-04 02:26:00,65.6,61.6,29.78,NW,304,0.0,1.0,87,0.00,,,0.00,Wunderground v.1.15,2013-09-04 09:26:00,
2013-09-04 02:31:00,65.6,61.6,29.78,WNW,303,0.0,1.0,87,0.00,,,0.00,Wunderground v.1.15,2013-09-04 09:31:00,
2013-09-04 02:36:00,65.5,61.5,29.78,NW,304,0.0,1.0,87,0.00,,,0.00,Wunderground v.1.15,2013-09-04 09:36:00,
2013-09-04 02:41:00,65.4,61.4,29.77,NW,304,0.0,1.0,87,0.00,,,0.00,Wunderground v.1.15,2013-09-04 09:41:00,
2013-09-04 02:47:00,65.3,61.7,29.78,WNW,303,0.0,1.0,88,0.00,,,0.00,Wunderground v.1.15,2013-09-04 09:47:00,
2013-09-04 02:52:00,65.2,61.6,29.78,NW,304,0.0,1.0,88,0.00,,,0.00,Wunderground v.1.15,2013-09-04 09:52:00,
2013-09-04 02:57:00,65.1,61.5,29.78,WNW,303,0.0,1.0,88,0.00,,,0.00,Wunderground v.1.15,2013-09-04 09:57:00,
2013-09-04 03:02:00,65.0,61.4,29.78,NW,304,0.0,1.0,88,0.00,,,0.00,Wunderground v.1.15,2013-09-04 10:02:00,
2013-09-04 03:07:00,64.9,61.3,29.78,WNW,303,0.0,1.0,88,0.00,,,0.00,Wunderground v.1.15,2013-09-04 10:07:00,
2013-09-04 03:13:00,64.8,61.2,29.78,NW,304,0.0,1.0,88,0.00,,,0.00,Wunderground v.1.15,2013-09-04 10:13:00,
2013-09-04 03:18:00,64.7,61.1,29.78,NW,304,0.0,1.0,88,0.00,,,0.00,Wunderground v.1.15,2013-09-04 10:18:00,
2013-09-04 03:23:00,64.5,60.9,29.78,NW,304,0.0,1.0,88,0.00,,,0.00,Wunderground v.1.15,2013-09-04 10:23:00,
2013-09-04 03:29:00,64.4,60.8,29.78,NW,304,0.0,1.0,88,0.00,,,0.00,Wunderground v.1.15,2013-09-04 10:29:00,
2013-09-04 03:34:00,64.3,60.7,29.78,NW,304,0.0,1.0,88,0.00,,,0.00,Wunderground v.1.15,2013-09-04 10:34:00,
2013-09-04 03:40:00,64.2,60.9,29.78,NW,304,0.0,1.0,89,0.00,,,0.00,Wunderground v.1.15,2013-09-04 10:40:00,
2013-09-04 03:45:00,64.1,60.8,29.78,WNW,303,0.0,1.0,89,0.00,,,0.00,Wunderground v.1.15,2013-09-04 10:45:00,
2013-09-04 03:50:00,64.0,60.7,29.77,NW,304,0.0,1.0,89,0.00,,,0.00,Wunderground v.1.15,2013-09-04 10:50:00,
2013-09-04 03:55:00,63.9,60.6,29.77,WNW,303,0.0,1.0,89,0.00,,,0.00,Wunderground v.1.15,2013-09-04 10:55:00,
2013-09-04 04:00:00,63.9,60.9,29.78,WNW,303,0.0,1.0,90,0.00,,,0.00,Wunderground v.1.15,2013-09-04 11:00:00,
2013-09-04 04:05:00,63.9,60.9,29.77,NW,304,0.0,1.0,90,0.00,,,0.00,Wunderground v.1.15,2013-09-04 11:05:00,
2013-09-04 04:11:00,63.8,60.8,29.77,WNW,303,0.0,1.0,90,0.00,,,0.00,Wunderground v.1.15,2013-09-04 11:11:00,
2013-09-04 04:16:00,63.7,60.7,29.77,WNW,303,0.0,1.0,90,0.00,,,0.00,Wunderground v.1.15,2013-09-04 11:16:00,
2013-09-04 04:21:00,63.6,60.6,29.77,NW,304,0.0,1.0,90,0.00,,,0.00,Wunderground v.1.15,2013-09-04 11:21:00,
2013-09-04 04:26:00,63.5,60.5,29.77,NW,304,0.0,1.0,90,0.00,,,0.00,Wunderground v.1.15,2013-09-04 11:26:00,
2013-09-04 04:31:00,63.5,60.5,29.78,WNW,303,0.0,1.0,90,0.00,,,0.00,Wunderground v.1.15,2013-09-04 11:31:00,
2013-09-04 04:36:00,63.4,60.4,29.78,NW,304,0.0,1.0,90,0.00,,,0.00,Wunderground v.1.15,2013-09-04 11:36:00,
2013-09-04 04:41:00,63.4,60.4,29.77,WNW,303,0.0,1.0,90,0.00,,,0.00,Wunderground v.1.15,2013-09-04 11:41:00,
2013-09-04 04:46:00,63.2,60.2,29.77,NW,304,0.0,1.0,90,0.00,,,0.00,Wunderground v.1.15,2013-09-04 11:46:00,
2013-09-04 04:52:00,63.1,60.1,29.77,NW,304,0.0,1.0,90,0.00,,,0.00,Wunderground v.1.15,2013-09-04 11:52:00,
2013-09-04 04:57:00,63.0,60.3,29.78,NW,304,0.0,1.0,91,0.00,,,0.00,Wunderground v.1.15,2013-09-04 11:57:00,
2013-09-04 05:02:00,62.9,60.2,29.78,NW,304,0.0,1.0,91,0.00,,,0.00,Wunderground v.1.15,2013-09-04 12:02:00,
2013-09-04 05:07:00,62.9,60.2,29.78,WNW,303,0.0,1.0,91,0.00,,,0.00,Wunderground v.1.15,2013-09-04 12:07:00,
2013-09-04 05:12:00,62.9,60.2,29.78,NW,304,0.0,1.0,91,0.00,,,0.00,Wunderground v.1.15,2013-09-04 12:12:00,
2013-09-04 05:17:00,62.8,60.1,29.78,WNW,303,0.0,1.0,91,0.00,,,0.00,Wunderground v.1.15,2013-09-04 12:17:00,
2013-09-04 05:22:00,62.8,60.1,29.78,WNW,303,0.0,1.0,91,0.00,,,0.00,Wunderground v.1.15,2013-09-04 12:22:00,
2013-09-04 05:27:00,62.7,60.0,29.78,NW,304,0.0,1.0,91,0.00,,,0.00,Wunderground v.1.15,2013-09-04 12:27:00,
2013-09-04 05:32:00,62.6,59.9,29.78,NW,304,0.0,1.0,91,0.00,,,0.00,Wunderground v.1.15,2013-09-04 12:32:00,
2013-09-04 05:37:00,62.5,59.8,29.78,NW,304,0.0,1.0,91,0.00,,,0.00,Wunderground v.1.15,2013-09-04 12:37:00,
2013-09-04 05:42:00,62.4,60.0,29.78,NW,304,0.0,1.0,92,0.00,,,0.00,Wunderground v.1.15,2013-09-04 12:42:00,
2013-09-04 05:47:00,62.4,60.0,29.79,NW,304,0.0,1.0,92,0.00,,,0.00,Wunderground v.1.15,2013-09-04 12:47:00,
2013-09-04 05:52:00,62.4,60.0,29.79,NW,304,0.0,1.0,92,0.00,,,0.00,Wunderground v.1.15,2013-09-04 12:52:00,
2013-09-04 05:58:00,62.4,60.0,29.78,NW,304,0.0,1.0,92,0.00,,,0.00,Wunderground v.1.15,2013-09-04 12:58:00,
2013-09-04 06:03:00,62.3,59.9,29.78,WNW,303,0.0,1.0,92,0.00,,,0.00,Wunderground v.1.15,2013-09-04 13:03:00,
2013-09-04 06:08:00,62.3,59.9,29.78,NW,304,0.0,1.0,92,0.00,,,0.00,Wunderground v.1.15,2013-09-04 13:08:00,
2013-09-04 06:14:00,62.2,59.8,29.79,WNW,303,0.0,1.0,92,0.00,,,0.00,Wunderground v.1.15,2013-09-04 13:14:00,
2013-09-04 06:19:00,62.2,59.8,29.79,NW,304,0.0,1.0,92,0.00,,,0.00,Wunderground v.1.15,2013-09-04 13:19:00,
2013-09-04 06:24:00,62.1,60.1,29.79,NW,304,0.0,1.0,93,0.00,,,0.00,Wunderground v.1.15,2013-09-04 13:24:00,
2013-09-04 06:29:00,62.2,60.5,29.79,NW,304,0.0,1.0,94,0.00,,,0.00,Wunderground v.1.15,2013-09-04 13:29:00,
2013-09-04 06:34:00,62.3,60.2,29.79,NW,304,0.0,1.0,93,0.00,,,0.00,Wunderground v.1.15,2013-09-04 13:34:00,
2013-09-04 06:40:00,62.2,60.2,29.79,NW,304,0.0,1.0,93,0.00,,,0.00,Wunderground v.1.15,2013-09-04 13:40:00,
2013-09-04 06:45:00,62.1,60.1,29.79,NW,304,0.0,1.0,93,0.00,,,0.00,Wunderground v.1.15,2013-09-04 13:45:00,
2013-09-04 06:50:00,62.0,60.0,29.79,NW,304,0.0,1.0,93,0.00,,,0.00,Wunderground v.1.15,2013-09-04 13:50:00,
2013-09-04 06:55:00,61.9,59.9,29.79,WNW,303,0.0,1.0,93,0.00,,,0.00,Wunderground v.1.15,2013-09-04 13:55:00,
2013-09-04 07:00:00,61.8,59.8,29.79,NW,304,0.0,1.0,93,0.00,,,0.00,Wunderground v.1.15,2013-09-04 14:00:00,
2013-09-04 07:05:00,61.8,59.8,29.79,NW,304,0.0,1.0,93,0.00,,,0.00,Wunderground v.1.15,2013-09-04 14:05:00,
2013-09-04 07:10:00,61.9,60.2,29.79,WNW,303,0.0,1.0,94,0.00,,,0.00,Wunderground v.1.15,2013-09-04 14:10:00,
2013-09-04 07:15:00,62.1,60.4,29.80,NW,304,0.0,1.0,94,0.00,,,0.00,Wunderground v.1.15,2013-09-04 14:15:00,
2013-09-04 07:21:00,62.4,60.7,29.80,WNW,303,0.0,1.0,94,0.00,,,0.00,Wunderground v.1.15,2013-09-04 14:21:00,
2013-09-04 07:26:00,62.6,60.8,29.80,WNW,303,0.0,1.0,94,0.00,,,0.00,Wunderground v.1.15,2013-09-04 14:26:00,
2013-09-04 07:31:00,62.9,61.1,29.80,NW,304,0.0,1.0,94,0.00,,,0.00,Wunderground v.1.15,2013-09-04 14:31:00,
2013-09-04 07:36:00,63.2,61.1,29.80,NW,304,0.0,1.0,93,0.00,,,0.00,Wunderground v.1.15,2013-09-04 14:36:00,
2013-09-04 07:41:00,63.6,61.2,29.80,NW,304,0.0,1.0,92,0.00,,,0.00,Wunderground v.1.15,2013-09-04 14:41:00,
2013-09-04 07:46:00,64.4,61.7,29.80,NW,304,0.0,1.0,91,0.00,,,0.00,Wunderground v.1.15,2013-09-04 14:46:00,
2013-09-04 07:51:00,64.8,61.8,29.80,WNW,303,0.0,1.0,90,0.00,,,0.00,Wunderground v.1.15,2013-09-04 14:51:00,
2013-09-04 07:56:00,64.9,61.9,29.80,NW,304,0.0,1.0,90,0.00,,,0.00,Wunderground v.1.15,2013-09-04 14:56:00,
2013-09-04 08:01:00,65.1,61.8,29.80,NW,304,0.0,1.0,89,0.00,,,0.00,Wunderground v.1.15,2013-09-04 15:01:00,
2013-09-04 08:06:00,66.1,62.4,29.80,WNW,303,0.0,1.0,88,0.00,,,0.00,Wunderground v.1.15,2013-09-04 15:06:00,
2013-09-04 08:11:00,67.1,62.4,29.80,WNW,303,0.0,1.0,85,0.00,,,0.00,Wunderground v.1.15,2013-09-04 15:11:00,
2013-09-04 08:16:00,67.6,62.9,29.80,NW,304,0.0,1.0,85,0.00,,,0.00,Wunderground v.1.15,2013-09-04 15:16:00,
2013-09-04 08:21:00,67.9,62.9,29.81,NW,304,0.0,1.0,84,0.00,,,0.00,Wunderground v.1.15,2013-09-04 15:21:00,
2013-09-04 08:26:00,69.0,63.6,29.81,WNW,303,0.0,1.0,83,0.00,,,0.00,Wunderground v.1.15,2013-09-04 15:26:00,
2013-09-04 08:32:00,69.9,63.4,29.81,SW,227,1.0,1.0,80,0.00,,,0.00,Wunderground v.1.15,2013-09-04 15:32:00,
2013-09-04 08:37:00,70.2,63.4,29.81,SW,233,1.0,2.0,79,0.00,,,0.00,Wunderground v.1.15,2013-09-04 15:37:00,
2013-09-04 08:42:00,70.6,63.8,29.81,SW,236,0.0,1.0,79,0.00,,,0.00,Wunderground v.1.15,2013-09-04 15:42:00,
2013-09-04 08:47:00,71.0,63.8,29.81,SW,236,0.0,1.0,78,0.00,,,0.00,Wunderground v.1.15,2013-09-04 15:47:00,
2013-09-04 08:52:00,71.4,63.8,29.81,SW,236,0.0,1.0,77,0.00,,,0.00,Wunderground v.1.15,2013-09-04 15:52:00,
2013-09-04 08:57:00,72.0,64.4,29.81,SW,236,0.0,1.0,77,0.00,,,0.00,Wunderground v.1.15,2013-09-04 15:57:00,
2013-09-04 09:02:00,72.4,64.4,29.81,WSW,238,0.0,4.0,76,0.00,,,0.00,Wunderground v.1.15,2013-09-04 16:02:00,
2013-09-04 09:07:00,72.7,64.3,29.81,WSW,238,0.0,4.0,75,0.00,,,0.00,Wunderground v.1.15,2013-09-04 16:07:00,
2013-09-04 09:12:00,73.2,64.4,29.81,WSW,240,0.0,3.0,74,0.00,,,0.00,Wunderground v.1.15,2013-09-04 16:12:00,
2013-09-04 09:17:00,73.7,65.3,29.81,WSW,240,0.0,3.0,75,0.00,,,0.00,Wunderground v.1.15,2013-09-04 16:17:00,
2013-09-04 09:22:00,74.3,65.1,29.81,WSW,245,0.0,1.0,73,0.00,,,0.00,Wunderground v.1.15,2013-09-04 16:22:00,
2013-09-04 09:28:00,74.8,64.8,29.81,WSW,251,1.0,1.0,71,0.00,,,0.00,Wunderground v.1.15,2013-09-04 16:28:00,
2013-09-04 09:33:00,75.3,65.6,29.81,WSW,252,1.0,1.0,72,0.00,,,0.00,Wunderground v.1.15,2013-09-04 16:33:00,
2013-09-04 09:38:00,75.6,65.1,29.81,WSW,253,0.0,2.0,70,0.00,,,0.00,Wunderground v.1.15,2013-09-04 16:38:00,
2013-09-04 09:43:00,75.9,65.0,29.81,WSW,253,0.0,1.0,69,0.00,,,0.00,Wunderground v.1.15,2013-09-04 16:43:00,
2013-09-04 09:48:00,76.3,65.4,29.81,WSW,255,1.0,4.0,69,0.00,,,0.00,Wunderground v.1.15,2013-09-04 16:48:00,
2013-09-04 09:53:00,76.8,65.0,29.81,West,275,2.0,5.0,67,0.00,,,0.00,Wunderground v.1.15,2013-09-04 16:53:00,
2013-09-04 09:58:00,77.1,65.3,29.81,West,275,3.0,6.0,67,0.00,,,0.00,Wunderground v.1.15,2013-09-04 16:58:00,
2013-09-04 10:04:00,77.8,66.0,29.81,WSW,240,2.0,3.0,67,0.00,,,0.00,Wunderground v.1.15,2013-09-04 17:04:00,
2013-09-04 10:10:00,78.4,66.5,29.81,WSW,250,2.0,2.0,67,0.00,,,0.00,Wunderground v.1.15,2013-09-04 17:10:00,
2013-09-04 10:15:00,79.1,66.8,29.81,WSW,241,2.0,4.0,66,0.00,,,0.00,Wunderground v.1.15,2013-09-04 17:15:00,
2013-09-04 10:20:00,79.3,66.5,29.81,West,273,1.0,1.0,65,0.00,,,0.00,Wunderground v.1.15,2013-09-04 17:20:00,
2013-09-04 10:25:00,79.7,66.9,29.81,WSW,238,2.0,7.0,65,0.00,,,0.00,Wunderground v.1.15,2013-09-04 17:25:00,
2013-09-04 10:30:00,80.1,66.8,29.81,West,267,2.0,2.0,64,0.00,,,0.00,Wunderground v.1.15,2013-09-04 17:30:00,
2013-09-04 10:35:00,80.5,66.7,29.81,WSW,246,2.0,5.0,63,0.00,,,0.00,Wunderground v.1.15,2013-09-04 17:35:00,
2013-09-04 10:40:00,80.8,67.0,29.81,WSW,250,2.0,2.0,63,0.00,,,0.00,Wunderground v.1.15,2013-09-04 17:40:00,
2013-09-04 10:45:00,81.7,66.9,29.81,West,268,1.0,6.0,61,0.00,,,0.00,Wunderground v.1.15,2013-09-04 17:45:00,
2013-09-04 10:50:00,82.0,67.2,29.81,WSW,254,2.0,4.0,61,0.00,,,0.00,Wunderground v.1.15,2013-09-04 17:50:00,
2013-09-04 10:55:00,82.4,67.6,29.81,SW,229,3.0,4.0,61,0.00,,,0.00,Wunderground v.1.15,2013-09-04 17:55:00,
2013-09-04 11:01:00,82.8,67.5,29.80,WSW,242,2.0,2.0,60,0.00,,,0.00,Wunderground v.1.15,2013-09-04 18:01:00,
2013-09-04 11:06:00,83.5,67.2,29.80,WSW,246,1.0,2.0,58,0.00,,,0.00,Wunderground v.1.15,2013-09-04 18:06:00,
2013-09-04 11:12:00,84.1,67.7,29.80,WSW,241,2.0,4.0,58,0.00,,,0.00,Wunderground v.1.15,2013-09-04 18:12:00,
2013-09-04 11:17:00,84.4,67.0,29.80,SW,236,3.0,5.0,56,0.00,,,0.00,Wunderground v.1.15,2013-09-04 18:17:00,
2013-09-04 11:22:00,84.9,67.5,29.80,West,265,3.0,3.0,56,0.00,,,0.00,Wunderground v.1.15,2013-09-04 18:22:00,
2013-09-04 11:27:00,85.1,66.6,29.80,West,267,3.0,7.0,54,0.00,,,0.00,Wunderground v.1.15,2013-09-04 18:27:00,
2013-09-04 11:32:00,85.1,67.1,29.80,SW,233,3.0,5.0,55,0.00,,,0.00,Wunderground v.1.15,2013-09-04 18:32:00,
2013-09-04 11:37:00,85.1,66.6,29.80,WSW,241,4.0,5.0,54,0.00,,,0.00,Wunderground v.1.15,2013-09-04 18:37:00,
2013-09-04 11:43:00,85.4,67.4,29.80,WSW,256,3.0,7.0,55,0.00,,,0.00,Wunderground v.1.15,2013-09-04 18:43:00,
2013-09-04 11:48:00,86.1,66.4,29.80,NW,309,3.0,7.0,52,0.00,,,0.00,Wunderground v.1.15,2013-09-04 18:48:00,
2013-09-04 11:53:00,86.8,66.5,29.79,West,280,3.0,5.0,51,0.00,,,0.00,Wunderground v.1.15,2013-09-04 18:53:00,
2013-09-04 11:58:00,87.5,67.1,29.79,WNW,303,3.0,5.0,51,0.00,,,0.00,Wunderground v.1.15,2013-09-04 18:58:00,
2013-09-04 12:03:00,88.1,65.9,29.79,WSW,249,2.0,4.0,48,0.00,,,0.00,Wunderground v.1.15,2013-09-04 19:03:00,
2013-09-04 12:08:00,88.5,66.3,29.80,West,265,2.0,4.0,48,0.00,,,0.00,Wunderground v.1.15,2013-09-04 19:08:00,
2013-09-04 12:13:00,89.0,66.8,29.79,SW,232,2.0,5.0,48,0.00,,,0.00,Wunderground v.1.15,2013-09-04 19:13:00,
2013-09-04 12:19:00,89.4,65.9,29.79,West,280,3.0,8.0,46,0.00,,,0.00,Wunderground v.1.15,2013-09-04 19:19:00,
2013-09-04 12:25:00,89.6,65.4,29.78,West,273,4.0,7.0,45,0.00,,,0.00,Wunderground v.1.15,2013-09-04 19:25:00,
2013-09-04 12:30:00,89.3,66.4,29.78,West,271,4.0,4.0,47,0.00,,,0.00,Wunderground v.1.15,2013-09-04 19:30:00,
2013-09-04 12:35:00,89.9,66.3,29.78,West,281,3.0,4.0,46,0.00,,,0.00,Wunderground v.1.15,2013-09-04 19:35:00,
2013-09-04 12:40:00,90.6,65.7,29.78,NW,318,2.0,2.0,44,0.00,,,0.00,Wunderground v.1.15,2013-09-04 19:40:00,
2013-09-04 12:45:00,90.6,67.0,29.78,NW,314,4.0,7.0,46,0.00,,,0.00,Wunderground v.1.15,2013-09-04 19:45:00,
2013-09-04 12:50:00,90.8,65.2,29.77,NW,306,4.0,4.0,43,0.00,,,0.00,Wunderground v.1.15,2013-09-04 19:50:00,
2013-09-04 12:55:00,91.0,66.7,29.78,WSW,257,4.0,8.0,45,0.00,,,0.00,Wunderground v.1.15,2013-09-04 19:55:00,
2013-09-04 13:00:00,91.1,65.5,29.78,WNW,290,4.0,5.0,43,0.00,,,0.00,Wunderground v.1.15,2013-09-04 20:00:00,
2013-09-04 13:05:00,90.8,65.9,29.77,West,264,5.0,10.0,44,0.00,,,0.00,Wunderground v.1.15,2013-09-04 20:05:00,
2013-09-04 13:11:00,90.4,64.9,29.77,WSW,254,6.0,9.0,43,0.00,,,0.00,Wunderground v.1.15,2013-09-04 20:11:00,
2013-09-04 13:16:00,90.0,65.2,29.77,WSW,252,6.0,16.0,44,0.00,,,0.00,Wunderground v.1.15,2013-09-04 20:16:00,
2013-09-04 13:21:00,89.6,65.4,29.77,WNW,284,5.0,6.0,45,0.00,,,0.00,Wunderground v.1.15,2013-09-04 20:21:00,
2013-09-04 13:26:00,89.5,64.7,29.77,WNW,282,5.0,10.0,44,0.00,,,0.00,Wunderground v.1.15,2013-09-04 20:26:00,
2013-09-04 13:31:00,89.3,65.2,29.77,NW,305,5.0,5.0,45,0.00,,,0.00,Wunderground v.1.15,2013-09-04 20:31:00,
2013-09-04 13:36:00,89.3,65.2,29.77,NNE,22,4.0,8.0,45,0.00,,,0.00,Wunderground v.1.15,2013-09-04 20:36:00,
2013-09-04 13:41:00,89.2,65.1,29.77,NW,308,4.0,5.0,45,0.00,,,0.00,Wunderground v.1.15,2013-09-04 20:41:00,
2013-09-04 13:46:00,88.9,64.8,29.77,West,275,6.0,7.0,45,0.00,,,0.00,Wunderground v.1.15,2013-09-04 20:46:00,
2013-09-04 13:51:00,89.0,65.5,29.77,West,281,5.0,6.0,46,0.00,,,0.00,Wunderground v.1.15,2013-09-04 20:51:00,
2013-09-04 13:56:00,88.8,65.4,29.77,WNW,289,5.0,9.0,46,0.00,,,0.00,Wunderground v.1.15,2013-09-04 20:56:00,
2013-09-04 14:01:00,88.4,65.6,29.77,WSW,256,5.0,5.0,47,0.00,,,0.00,Wunderground v.1.15,2013-09-04 21:01:00,
2013-09-04 14:06:00,88.3,65.5,29.77,NW,312,5.0,7.0,47,0.00,,,0.00,Wunderground v.1.15,2013-09-04 21:06:00,
2013-09-04 14:12:00,88.6,64.5,29.77,NW,311,5.0,7.0,45,0.00,,,0.00,Wunderground v.1.15,2013-09-04 21:12:00,
2013-09-04 14:17:00,88.4,65.6,29.77,NW,304,5.0,8.0,47,0.00,,,0.00,Wunderground v.1.15,2013-09-04 21:17:00,
2013-09-04 14:22:00,88.6,65.8,29.76,West,272,5.0,5.0,47,0.00,,,0.00,Wunderground v.1.15,2013-09-04 21:22:00,
2013-09-04 14:27:00,89.1,65.6,29.76,West,272,3.0,5.0,46,0.00,,,0.00,Wunderground v.1.15,2013-09-04 21:27:00,
2013-09-04 14:32:00,89.4,64.6,29.76,WSW,254,4.0,11.0,44,0.00,,,0.00,Wunderground v.1.15,2013-09-04 21:32:00,
2013-09-04 14:37:00,88.6,64.5,29.76,WNW,284,6.0,11.0,45,0.00,,,0.00,Wunderground v.1.15,2013-09-04 21:37:00,
2013-09-04 14:43:00,88.8,65.4,29.76,WNW,300,5.0,7.0,46,0.00,,,0.00,Wunderground v.1.15,2013-09-04 21:43:00,
2013-09-04 14:48:00,89.8,65.6,29.76,West,276,3.0,7.0,45,0.00,,,0.00,Wunderground v.1.15,2013-09-04 21:48:00,
2013-09-04 14:53:00,90.3,65.4,29.75,West,264,3.0,9.0,44,0.00,,,0.00,Wunderground v.1.15,2013-09-04 21:53:00,
2013-09-04 14:58:00,90.6,65.7,29.75,NW,323,3.0,9.0,44,0.00,,,0.00,Wunderground v.1.15,2013-09-04 21:58:00,
2013-09-04 15:03:00,91.1,66.2,29.75,West,261,4.0,4.0,44,0.00,,,0.00,Wunderground v.1.15,2013-09-04 22:03:00,
2013-09-04 15:08:00,90.8,64.5,29.75,WNW,288,5.0,6.0,42,0.00,,,0.00,Wunderground v.1.15,2013-09-04 22:08:00,
2013-09-04 15:14:00,89.4,65.3,29.75,West,273,5.0,8.0,45,0.00,,,0.00,Wunderground v.1.15,2013-09-04 22:14:00,
2013-09-04 15:19:00,89.3,64.5,29.75,WSW,249,4.0,8.0,44,0.00,,,0.00,Wunderground v.1.15,2013-09-04 22:19:00,
2013-09-04 15:24:00,89.4,64.6,29.75,West,277,3.0,9.0,44,0.00,,,0.00,Wunderground v.1.15,2013-09-04 22:24:00,
2013-09-04 15:30:00,89.3,64.5,29.75,WNW,287,4.0,4.0,44,0.00,,,0.00,Wunderground v.1.15,2013-09-04 22:30:00,
2013-09-04 15:35:00,89.2,65.7,29.75,NW,316,4.0,6.0,46,0.00,,,0.00,Wunderground v.1.15,2013-09-04 22:35:00,
2013-09-04 15:40:00,89.3,64.5,29.75,West,273,3.0,3.0,44,0.00,,,0.00,Wunderground v.1.15,2013-09-04 22:40:00,
2013-09-04 15:46:00,89.9,65.1,29.74,West,273,3.0,8.0,44,0.00,,,0.00,Wunderground v.1.15,2013-09-04 22:46:00,
2013-09-04 15:51:00,89.8,65.6,29.75,WNW,303,3.0,5.0,45,0.00,,,0.00,Wunderground v.1.15,2013-09-04 22:51:00,
2013-09-04 15:56:00,90.0,64.5,29.75,WNW,296,3.0,6.0,43,0.00,,,0.00,Wunderground v.1.15,2013-09-04 22:56:00,
2013-09-04 16:01:00,89.6,64.8,29.74,West,271,3.0,8.0,44,0.00,,,0.00,Wunderground v.1.15,2013-09-04 23:01:00,
2013-09-04 16:06:00,89.4,64.6,29.74,WNW,290,3.0,8.0,44,0.00,,,0.00,Wunderground v.1.15,2013-09-04 23:06:00,
2013-09-04 16:11:00,88.8,65.4,29.74,West,279,3.0,7.0,46,0.00,,,0.00,Wunderground v.1.15,2013-09-04 23:11:00,
2013-09-04 16:16:00,88.6,64.5,29.74,NW,304,3.0,7.0,45,0.00,,,0.00,Wunderground v.1.15,2013-09-04 23:16:00,
2013-09-04 16:21:00,88.4,64.4,29.74,West,265,2.0,2.0,45,0.00,,,0.00,Wunderground v.1.15,2013-09-04 23:21:00,
2013-09-04 16:26:00,88.0,64.0,29.74,NW,317,3.0,6.0,45,0.00,,,0.00,Wunderground v.1.15,2013-09-04 23:26:00,
2013-09-04 16:31:00,87.9,65.2,29.74,WNW,302,4.0,4.0,47,0.00,,,0.00,Wunderground v.1.15,2013-09-04 23:31:00,
2013-09-04 16:37:00,88.4,64.4,29.74,West,263,4.0,7.0,45,0.00,,,0.00,Wunderground v.1.15,2013-09-04 23:37:00,
2013-09-04 16:42:00,88.4,64.4,29.74,WNW,285,3.0,4.0,45,0.00,,,0.00,Wunderground v.1.15,2013-09-04 23:42:00,
2013-09-04 16:47:00,88.4,64.4,29.74,West,267,2.0,7.0,45,0.00,,,0.00,Wunderground v.1.15,2013-09-04 23:47:00,
2013-09-04 16:52:00,88.4,64.4,29.74,West,265,3.0,5.0,45,0.00,,,0.00,Wunderground v.1.15,2013-09-04 23:52:00,
2013-09-04 16:58:00,87.7,64.4,29.75,WNW,299,4.0,5.0,46,0.00,,,0.00,Wunderground v.1.15,2013-09-04 23:58:00,
2013-09-04 17:03:00,87.2,63.9,29.75,WNW,302,4.0,7.0,46,0.00,,,0.00,Wunderground v.1.15,2013-09-05 00:03:00,
2013-09-04 17:08:00,86.7,64.7,29.75,NW,305,3.0,7.0,48,0.00,,,0.00,Wunderground v.1.15,2013-09-05 00:08:00,
2013-09-04 17:13:00,86.5,64.5,29.75,NW,309,2.0,3.0,48,0.00,,,0.00,Wunderground v.1.15,2013-09-05 00:13:00,
2013-09-04 17:19:00,86.0,64.0,29.75,West,263,2.0,7.0,48,0.00,,,0.00,Wunderground v.1.15,2013-09-05 00:19:00,
2013-09-04 17:24:00,86.2,64.8,29.75,WNW,303,2.0,6.0,49,0.00,,,0.00,Wunderground v.1.15,2013-09-05 00:24:00,
2013-09-04 17:29:00,86.3,64.3,29.75,West,263,3.0,7.0,48,0.00,,,0.00,Wunderground v.1.15,2013-09-05 00:29:00,
2013-09-04 17:34:00,86.1,63.5,29.75,WNW,296,3.0,7.0,47,0.00,,,0.00,Wunderground v.1.15,2013-09-05 00:34:00,
2013-09-04 17:39:00,85.8,63.2,29.75,NW,305,3.0,7.0,47,0.00,,,0.00,Wunderground v.1.15,2013-09-05 00:39:00,
2013-09-04 17:44:00,85.5,63.0,29.75,WNW,286,2.0,5.0,47,0.00,,,0.00,Wunderground v.1.15,2013-09-05 00:44:00,
2013-09-04 17:49:00,84.9,63.0,29.75,North,355,2.0,6.0,48,0.00,,,0.00,Wunderground v.1.15,2013-09-05 00:49:00,
2013-09-04 17:54:00,84.6,62.7,29.75,WNW,303,2.0,4.0,48,0.00,,,0.00,Wunderground v.1.15,2013-09-05 00:54:00,
2013-09-04 17:59:00,84.0,62.8,29.74,West,279,2.0,6.0,49,0.00,,,0.00,Wunderground v.1.15,2013-09-05 00:59:00,
2013-09-04 18:04:00,83.4,63.4,29.74,NW,306,3.0,6.0,51,0.00,,,0.00,Wunderground v.1.15,2013-09-05 01:04:00,
2013-09-04 18:10:00,82.6,63.2,29.75,West,276,3.0,4.0,52,0.00,,,0.00,Wunderground v.1.15,2013-09-05 01:10:00,
2013-09-04 18:15:00,81.9,62.5,29.75,WNW,287,2.0,4.0,52,0.00,,,0.00,Wunderground v.1.15,2013-09-05 01:15:00,
2013-09-04 18:20:00,81.6,62.8,29.74,NW,316,1.0,1.0,53,0.00,,,0.00,Wunderground v.1.15,2013-09-05 01:20:00,
2013-09-04 18:25:00,81.5,62.7,29.75,NNW,331,1.0,2.0,53,0.00,,,0.00,Wunderground v.1.15,2013-09-05 01:25:00,
2013-09-04 18:31:00,81.4,62.6,29.75,NNW,342,0.0,1.0,53,0.00,,,0.00,Wunderground v.1.15,2013-09-05 01:31:00,
2013-09-04 18:36:00,81.1,62.3,29.75,NNW,341,0.0,1.0,53,0.00,,,0.00,Wunderground v.1.15,2013-09-05 01:36:00,
2013-09-04 18:41:00,81.1,62.3,29.75,NNW,342,0.0,1.0,53,0.00,,,0.00,Wunderground v.1.15,2013-09-05 01:41:00,
2013-09-04 18:46:00,80.7,63.0,29.75,NNW,341,0.0,1.0,55,0.00,,,0.00,Wunderground v.1.15,2013-09-05 01:46:00,
2013-09-04 18:52:00,80.2,62.6,29.75,NNW,342,0.0,1.0,55,0.00,,,0.00,Wunderground v.1.15,2013-09-05 01:52:00,
2013-09-04 18:57:00,79.9,62.3,29.75,NNW,342,0.0,1.0,55,0.00,,,0.00,Wunderground v.1.15,2013-09-05 01:57:00,
2013-09-04 19:02:00,79.5,62.4,29.75,NNW,341,0.0,1.0,56,0.00,,,0.00,Wunderground v.1.15,2013-09-05 02:02:00,
2013-09-04 19:07:00,79.3,62.7,29.75,NNW,342,0.0,1.0,57,0.00,,,0.00,Wunderground v.1.15,2013-09-05 02:07:00,
2013-09-04 19:12:00,79.3,63.2,29.75,NNW,341,0.0,1.0,58,0.00,,,0.00,Wunderground v.1.15,2013-09-05 02:12:00,
2013-09-04 19:17:00,79.7,63.6,29.75,NNW,342,0.0,1.0,58,0.00,,,0.00,Wunderground v.1.15,2013-09-05 02:17:00,
2013-09-04 19:22:00,79.8,63.2,29.75,NNW,342,0.0,1.0,57,0.00,,,0.00,Wunderground v.1.15,2013-09-05 02:22:00,
2013-09-04 19:27:00,79.8,63.2,29.75,NNW,341,0.0,1.0,57,0.00,,,0.00,Wunderground v.1.15,2013-09-05 02:27:00,
2013-09-04 19:32:00,79.6,63.0,29.75,NNW,342,0.0,1.0,57,0.00,,,0.00,Wunderground v.1.15,2013-09-05 02:32:00,
2013-09-04 19:37:00,79.5,63.4,29.76,NNW,342,0.0,1.0,58,0.00,,,0.00,Wunderground v.1.15,2013-09-05 02:37:00,
2013-09-04 19:43:00,78.8,63.3,29.76,NNW,341,0.0,1.0,59,0.00,,,0.00,Wunderground v.1.15,2013-09-05 02:43:00,
2013-09-04 19:48:00,78.1,62.6,29.75,NNW,342,0.0,1.0,59,0.00,,,0.00,Wunderground v.1.15,2013-09-05 02:48:00,
2013-09-04 19:53:00,77.3,62.3,29.76,NNW,342,0.0,1.0,60,0.00,,,0.00,Wunderground v.1.15,2013-09-05 02:53:00,
2013-09-04 19:58:00,76.7,62.2,29.76,NNW,341,0.0,1.0,61,0.00,,,0.00,Wunderground v.1.15,2013-09-05 02:58:00,
2013-09-04 20:03:00,76.2,62.7,29.76,NNW,342,0.0,1.0,63,0.00,,,0.00,Wunderground v.1.15,2013-09-05 03:03:00,
2013-09-04 20:08:00,75.7,62.7,29.76,NNW,342,0.0,1.0,64,0.00,,,0.00,Wunderground v.1.15,2013-09-05 03:08:00,
2013-09-04 20:13:00,76.1,63.0,29.76,NNW,342,0.0,1.0,64,0.00,,,0.00,Wunderground v.1.15,2013-09-05 03:13:00,
2013-09-04 20:18:00,76.3,62.8,29.76,NNW,342,0.0,1.0,63,0.00,,,0.00,Wunderground v.1.15,2013-09-05 03:18:00,
2013-09-04 20:23:00,76.6,63.1,29.77,NNW,341,0.0,1.0,63,0.00,,,0.00,Wunderground v.1.15,2013-09-05 03:23:00,
2013-09-04 20:28:00,77.1,63.5,29.77,NNW,342,0.0,1.0,63,0.00,,,0.00,Wunderground v.1.15,2013-09-05 03:28:00,
2013-09-04 20:33:00,76.9,62.9,29.77,NNW,342,0.0,1.0,62,0.00,,,0.00,Wunderground v.1.15,2013-09-05 03:33:00,
2013-09-04 20:39:00,76.1,62.6,29.77,NNW,341,0.0,1.0,63,0.00,,,0.00,Wunderground v.1.15,2013-09-05 03:39:00,
2013-09-04 20:44:00,75.4,62.4,29.77,NNW,342,0.0,1.0,64,0.00,,,0.00,Wunderground v.1.15,2013-09-05 03:44:00,
2013-09-04 20:49:00,74.8,62.2,29.77,NNW,342,0.0,1.0,65,0.00,,,0.00,Wunderground v.1.15,2013-09-05 03:49:00,
2013-09-04 20:54:00,74.2,62.5,29.77,NNW,341,0.0,1.0,67,0.00,,,0.00,Wunderground v.1.15,2013-09-05 03:54:00,
2013-09-04 20:59:00,73.7,62.1,29.77,NNW,342,0.0,1.0,67,0.00,,,0.00,Wunderground v.1.15,2013-09-05 03:59:00,
2013-09-04 21:01:00,73.4,61.8,29.77,NNW,342,0.0,1.0,67,0.00,,,0.00,Wunderground v.1.15,2013-09-05 04:01:00,
2013-09-04 21:02:00,73.3,62.1,29.77,NNW,341,0.0,1.0,68,0.00,,,0.00,Wunderground v.1.15,2013-09-05 04:02:00,
2013-09-04 21:05:00,73.1,61.9,29.77,NNW,342,0.0,1.0,68,0.00,,,0.00,Wunderground v.1.15,2013-09-05 04:05:00,
2013-09-04 21:08:00,72.9,62.1,29.77,NNW,342,0.0,1.0,69,0.00,,,0.00,Wunderground v.1.15,2013-09-05 04:08:00,
2013-09-04 21:12:00,72.5,62.2,29.77,NNW,342,0.0,1.0,70,0.00,,,0.00,Wunderground v.1.15,2013-09-05 04:12:00,
2013-09-04 21:15:00,72.3,62.0,29.77,NNW,341,0.0,1.0,70,0.00,,,0.00,Wunderground v.1.15,2013-09-05 04:15:00,
2013-09-04 21:20:00,71.9,62.0,29.77,NNW,341,0.0,1.0,71,0.00,,,0.00,Wunderground v.1.15,2013-09-05 04:20:00,
2013-09-04 21:25:00,71.5,62.0,29.77,NNW,342,0.0,1.0,72,0.00,,,0.00,Wunderground v.1.15,2013-09-05 04:25:00,
2013-09-04 21:30:00,71.3,61.8,29.77,NNW,342,0.0,1.0,72,0.00,,,0.00,Wunderground v.1.15,2013-09-05 04:30:00,
2013-09-04 21:35:00,71.1,62.0,29.77,NNW,341,0.0,1.0,73,0.00,,,0.00,Wunderground v.1.15,2013-09-05 04:35:00,
2013-09-04 21:41:00,70.8,61.7,29.77,NNW,342,0.0,1.0,73,0.00,,,0.00,Wunderground v.1.15,2013-09-05 04:41:00,
2013-09-04 21:46:00,70.6,61.9,29.77,NNW,342,0.0,1.0,74,0.00,,,0.00,Wunderground v.1.15,2013-09-05 04:46:00,
2013-09-04 21:51:00,70.4,61.7,29.77,NNW,341,0.0,1.0,74,0.00,,,0.00,Wunderground v.1.15,2013-09-05 04:51:00,
2013-09-04 21:56:00,70.1,61.4,29.77,NNW,341,0.0,1.0,74,0.00,,,0.00,Wunderground v.1.15,2013-09-05 04:56:00,
2013-09-04 22:01:00,69.9,61.2,29.77,NNW,342,0.0,1.0,74,0.00,,,0.00,Wunderground v.1.15,2013-09-05 05:01:00,
2013-09-04 22:06:00,69.7,61.4,29.78,NNW,342,0.0,1.0,75,0.00,,,0.00,Wunderground v.1.15,2013-09-05 05:06:00,
2013-09-04 22:12:00,69.5,61.2,29.78,NNW,342,0.0,1.0,75,0.00,,,0.00,Wunderground v.1.15,2013-09-05 05:12:00,
2013-09-04 22:17:00,69.4,61.5,29.78,NNW,341,0.0,1.0,76,0.00,,,0.00,Wunderground v.1.15,2013-09-05 05:17:00,
2013-09-04 22:22:00,69.2,61.3,29.78,NNW,342,0.0,1.0,76,0.00,,,0.00,Wunderground v.1.15,2013-09-05 05:22:00,
2013-09-04 22:28:00,68.9,60.6,29.78,NNW,341,0.0,1.0,75,0.00,,,0.00,Wunderground v.1.15,2013-09-05 05:28:00,
2013-09-04 22:33:00,68.6,60.4,29.78,NNW,342,0.0,1.0,75,0.00,,,0.00,Wunderground v.1.15,2013-09-05 05:33:00,
2013-09-04 22:38:00,68.4,60.5,29.78,NNW,341,0.0,1.0,76,0.00,,,0.00,Wunderground v.1.15,2013-09-05 05:38:00,
2013-09-04 22:43:00,68.3,60.8,29.78,NNW,342,0.0,1.0,77,0.00,,,0.00,Wunderground v.1.15,2013-09-05 05:43:00,
2013-09-04 22:48:00,68.2,60.7,29.78,NNW,342,0.0,1.0,77,0.00,,,0.00,Wunderground v.1.15,2013-09-05 05:48:00,
2013-09-04 22:54:00,67.9,60.8,29.78,NNW,341,0.0,1.0,78,0.00,,,0.00,Wunderground v.1.15,2013-09-05 05:54:00,
2013-09-04 22:59:00,67.8,61.0,29.78,NNW,342,0.0,1.0,79,0.00,,,0.00,Wunderground v.1.15,2013-09-05 05:59:00,
2013-09-04 23:04:00,67.7,61.0,29.78,NNW,342,0.0,1.0,79,0.00,,,0.00,Wunderground v.1.15,2013-09-05 06:04:00,
2013-09-04 23:09:00,67.5,61.1,29.78,NNW,341,0.0,1.0,80,0.00,,,0.00,Wunderground v.1.15,2013-09-05 06:09:00,
2013-09-04 23:14:00,67.4,61.0,29.78,NNW,342,0.0,1.0,80,0.00,,,0.00,Wunderground v.1.15,2013-09-05 06:14:00,
2013-09-04 23:19:00,67.2,60.8,29.78,NNW,342,0.0,1.0,80,0.00,,,0.00,Wunderground v.1.15,2013-09-05 06:19:00,
2013-09-04 23:24:00,67.0,60.6,29.78,NNW,341,0.0,1.0,80,0.00,,,0.00,Wunderground v.1.15,2013-09-05 06:24:00,
2013-09-04 23:29:00,66.9,60.5,29.78,NNW,342,0.0,1.0,80,0.00,,,0.00,Wunderground v.1.15,2013-09-05 06:29:00,
2013-09-04 23:34:00,66.7,60.7,29.78,NNW,341,0.0,1.0,81,0.00,,,0.00,Wunderground v.1.15,2013-09-05 06:34:00,
2013-09-04 23:39:00,66.6,60.9,29.78,NNW,341,0.0,1.0,82,0.00,,,0.00,Wunderground v.1.15,2013-09-05 06:39:00,
2013-09-04 23:45:00,66.5,60.8,29.78,NNW,342,0.0,1.0,82,0.00,,,0.00,Wunderground v.1.15,2013-09-05 06:45:00,
2013-09-04 23:50:00,66.4,60.7,29.77,NNW,342,0.0,1.0,82,0.00,,,0.00,Wunderground v.1.15,2013-09-05 06:50:00,
2013-09-04 23:55:00,66.2,60.5,29.77,NNW,342,0.0,1.0,82,0.00,,,0.00,Wunderground v.1.15,2013-09-05 06:55:00,